Track VANGUARD 1 now! 10-day predictions VANGUARD 1 is classified as:
1 00005U 58002B 25116.43519640 .00000200 00000-0 27906-3 0 9996 2 00005 34.2412 160.6285 1840752 59.4609 317.4844 10.85917255397970